Date String (YYYY-MM-DD hh:mm:ss) UTC,Instrument flags,Ambient pressure (hPa),Sample flow (lpm),Bypass flow (lpm),Sample temperature (°C),Ambient temperature (°C),ASC tube jacket temperature (°C),LED temperature (°C),Box temperature (°C),Sample RH (%),Span deviation,Mass concentration (μg/m³),Mass concentration (μg/m³),Mass concentration (μg/m³)
DateTimeUTC,F1_M11,P_M11,Q1_M11,Q2_M11,T1_M11,T2_M11,T3_M11,T4_M11,T5_M11,U1_M11,ZSPAN_M11,X0_M11,X2_M11,X1_M11
2023-01-25 14:00:00,,0826.1,4.99,0.00,22.7,23.2,00.0,31.3,24.7,06.5,-000.8,0009.40,0005.78,0005.54
2023-01-25 14:01:00,,0826.2,4.98,0.00,22.7,23.0,00.0,31.3,24.7,06.5,-000.9,0009.21,0005.62,0005.38
2023-01-25 14:02:00,,0826.2,5.03,0.00,22.8,22.5,00.0,31.4,24.7,06.5,-001.0,0009.06,0005.49,0005.24
2023-01-25 14:03:00,,0826.2,5.02,0.00,22.7,22.1,00.0,31.4,24.6,06.5,-001.0,0008.63,0005.41,0005.15
2023-01-25 14:04:00,,0826.2,5.01,0.00,22.7,21.9,00.0,31.4,24.5,06.4,-000.9,0008.15,0005.31,0005.05
2023-01-25 14:05:00,,0826.2,5.04,0.00,22.7,21.6,00.0,31.4,24.5,06.4,-001.0,0008.08,0005.26,0004.99
2023-01-25 14:06:00,,0826.2,5.00,0.00,22.7,21.4,00.0,31.4,24.4,06.5,-000.8,0007.98,0005.21,0004.94
2023-01-25 14:07:00,,0826.2,5.00,0.00,22.7,21.3,00.0,31.4,24.4,06.5,-000.9,0007.95,0005.19,0004.92
2023-01-25 14:08:00,,0826.2,4.99,0.00,22.6,21.1,00.0,31.4,24.3,06.4,-001.0,0007.99,0005.21,0004.93
2023-01-25 14:09:00,,0826.2,4.99,0.00,22.6,21.0,00.0,31.4,24.3,06.7,-001.4,0008.08,0005.22,0004.95
2023-01-25 14:10:00,,0826.2,5.00,0.00,22.6,20.8,00.0,31.4,24.2,07.4,-001.2,0008.29,0005.34,0005.06
2023-01-25 14:11:00,,0826.1,5.00,0.00,22.5,20.6,00.0,31.4,24.1,07.5,-001.0,0008.54,0005.53,0005.23
2023-01-25 14:12:00,,0826.1,5.00,0.00,22.5,20.3,00.0,31.3,24.0,07.4,-001.2,0008.66,0005.65,0005.36
2023-01-25 14:13:00,,0826.1,5.00,0.00,22.4,20.2,00.0,31.3,24.0,07.2,-001.6,0008.71,0005.71,0005.44
2023-01-25 14:14:00,,0826.2,5.01,0.00,22.4,20.3,00.0,31.3,24.0,07.0,-002.0,0008.72,0005.74,0005.47
2023-01-25 14:15:00,,0826.2,4.99,0.00,22.4,20.9,00.0,31.3,24.1,06.9,-001.9,0008.69,0005.75,0005.49
2023-01-25 14:16:00,,0826.2,4.99,0.00,22.5,22.0,00.0,31.3,24.3,06.7,-002.0,0008.66,0005.74,0005.49
2023-01-25 14:17:00,,0826.2,5.00,0.00,22.6,23.0,00.0,31.3,24.5,06.6,-002.3,0008.63,0005.71,0005.46
2023-01-25 14:18:00,,0826.3,4.99,0.00,22.7,22.9,00.0,31.3,24.6,06.6,-002.1,0008.58,0005.68,0005.43
2023-01-25 14:19:00,,0826.3,5.00,0.00,22.7,22.5,00.0,31.3,24.6,06.6,-002.0,0008.53,0005.63,0005.39
2023-01-25 14:20:00,,0826.3,5.02,0.00,22.7,22.1,00.0,31.3,24.5,07.4,-002.2,0008.98,0005.72,0005.47
2023-01-25 14:21:00,,0826.4,5.01,0.00,22.7,21.8,00.0,31.4,24.4,08.2,-002.5,0009.44,0005.96,0005.70
2023-01-25 14:22:00,,0826.4,4.98,0.00,22.6,21.5,00.0,31.4,24.4,08.2,-002.6,0009.71,0006.22,0005.97
2023-01-25 14:23:00,,0826.4,5.01,0.00,22.6,21.3,00.0,31.4,24.3,08.0,-002.4,0010.09,0006.51,0006.24
2023-01-25 14:24:00,,0826.4,5.00,0.00,22.6,21.2,00.0,31.4,24.3,08.1,-002.2,0010.52,0006.77,0006.47
2023-01-25 14:25:00,,0826.4,4.97,0.00,22.6,21.1,00.0,31.3,24.3,08.1,-002.1,0010.94,0007.12,0006.82
2023-01-25 14:26:00,,0826.4,4.99,0.00,22.6,21.0,00.0,31.3,24.3,07.4,-002.1,0011.14,0007.26,0006.97
2023-01-25 14:27:00,,0826.4,4.98,0.00,22.5,20.9,00.0,31.3,24.2,07.5,-001.9,0011.80,0007.47,0007.18
2023-01-25 14:28:00,,0826.4,5.01,0.00,22.5,20.9,00.0,31.3,24.2,07.4,-001.8,0012.04,0007.68,0007.38
2023-01-25 14:29:00,,0826.4,4.99,0.00,22.5,20.8,00.0,31.3,24.2,07.3,-002.0,0012.33,0007.90,0007.59
2023-01-25 14:30:00,,0826.5,5.01,0.00,22.5,20.8,00.0,31.3,24.1,07.0,-002.1,0012.48,0008.03,0007.72
2023-01-25 14:31:00,,0826.5,4.99,0.00,22.5,21.7,00.0,31.3,24.3,06.8,-001.8,0012.07,0007.96,0007.67
2023-01-25 14:32:00,,0826.5,5.01,0.00,22.6,22.7,00.0,31.3,24.5,06.8,-001.6,0011.37,0007.65,0007.35
2023-01-25 14:33:00,,0826.5,4.99,0.00,22.7,23.1,00.0,31.3,24.7,06.9,-001.6,0011.01,0007.32,0007.01
2023-01-25 14:34:00,,0826.5,4.99,0.00,22.7,22.7,00.0,31.4,24.7,07.0,-001.6,0010.59,0007.02,0006.73
2023-01-25 14:35:00,,0826.5,5.01,0.00,22.7,22.2,00.0,31.4,24.6,07.0,-001.5,0010.31,0006.77,0006.51
2023-01-25 14:36:00,,0826.5,5.00,0.00,22.7,21.8,00.0,31.4,24.5,07.0,-001.4,0010.24,0006.48,0006.22
2023-01-25 14:37:00,,0826.5,4.99,0.00,22.7,21.5,00.0,31.4,24.4,07.0,-001.6,0010.34,0006.41,0006.15
2023-01-25 14:38:00,,0826.5,5.00,0.00,22.7,21.3,00.0,31.4,24.3,07.0,-001.9,0010.23,0006.33,0006.07
2023-01-25 14:39:00,,0826.5,4.99,0.00,22.6,21.2,00.0,31.4,24.3,07.0,-002.1,0010.42,0006.26,0006.01
2023-01-25 14:40:00,,0826.5,4.99,0.00,22.6,21.0,00.0,31.4,24.3,07.0,-001.8,0010.32,0006.20,0005.94
2023-01-25 14:41:00,,0826.5,5.00,0.00,22.6,20.9,00.0,31.4,24.2,07.0,-001.5,0010.42,0006.22,0005.95
2023-01-25 14:42:00,,0826.6,5.04,0.00,22.5,20.8,00.0,31.4,24.2,07.0,-001.7,0010.70,0006.29,0006.01
2023-01-25 14:43:00,,0826.7,4.99,0.00,22.5,20.8,00.0,31.4,24.1,07.1,-001.6,0010.81,0006.39,0006.09
2023-01-25 14:44:00,,0826.7,4.99,0.00,22.5,20.7,00.0,31.4,24.1,07.4,-001.6,0010.94,0006.44,0006.17
2023-01-25 14:45:00,,0826.7,5.01,0.00,22.5,20.7,00.0,31.3,24.1,07.6,-001.6,0011.47,0006.55,0006.26
2023-01-25 14:46:00,,0826.7,5.00,0.00,22.4,20.7,00.0,31.3,24.1,07.6,-001.5,0011.49,0006.64,0006.35
2023-01-25 14:47:00,,0826.7,5.01,0.00,22.4,21.2,00.0,31.3,24.2,07.7,-001.5,0011.46,0006.76,0006.45
2023-01-25 14:48:00,,0826.7,4.99,0.00,22.5,22.2,00.0,31.3,24.4,07.8,-001.4,0011.43,0006.91,0006.57
2023-01-25 14:49:00,,0827.1,5.00,0.00,22.6,22.8,00.0,31.3,24.6,07.7,-001.2,0011.45,0007.07,0006.67
2023-01-25 14:50:00,,0826.9,4.99,0.00,22.7,22.5,00.0,31.4,24.6,07.7,-000.8,0011.45,0007.21,0006.77
2023-01-25 14:51:00,,0826.9,5.00,0.00,22.7,22.1,00.0,31.4,24.5,07.9,-001.0,0011.64,0007.31,0006.88
2023-01-25 14:52:00,,0827.0,5.00,0.00,22.7,21.8,00.0,31.4,24.4,08.0,-001.3,0011.75,0007.37,0006.92
2023-01-25 14:53:00,,0826.9,5.00,0.00,22.7,21.6,00.0,31.4,24.4,08.0,-001.5,0011.71,0007.46,0006.98
2023-01-25 14:54:00,,0826.8,5.00,0.00,22.6,21.4,00.0,31.4,24.4,07.9,-001.8,0011.85,0007.52,0007.04
2023-01-25 14:55:00,,0826.9,4.99,0.00,22.6,21.3,00.0,31.4,24.4,07.9,-001.7,0011.87,0007.56,0007.07
2023-01-25 14:56:00,,0826.9,5.00,0.00,22.6,21.1,00.0,31.4,24.3,07.8,-001.7,0011.35,0007.52,0007.04
2023-01-25 14:57:00,,0826.9,4.99,0.00,22.6,21.0,00.0,31.4,24.3,07.8,-002.1,0011.39,0007.48,0007.00
2023-01-25 14:58:00,,0827.2,5.01,0.00,22.6,21.0,00.0,31.4,24.3,07.8,-002.2,0011.36,0007.44,0006.94
2023-01-25 14:59:00,,0827.1,5.02,0.00,22.5,20.9,00.0,31.3,24.2,07.8,-002.0,0011.54,0007.36,0006.87
